Temperature
17 16 16 16 16 16 16 16 15 15 15 15 15 15 15 15 15 15 15 14 14 14 14 14 14 14 14 14 14 14 13 13 13 13 12 12 12 12 12 12 12 12 12
17 16 16 16 16 16 16 15 15 15 15 15 15 15 15 15 15 15 15 14 14 14 14 14 14 14 14 14 13 13 13 13 13 13 12 12 12 12 12 11 11 11 11
16 16 16 16 16 16 15 15 15 15 15 15 15 15 15 15 15 14 14 14 14 14 14 14 14 14 13 13 13 13 13 13 13 12 12 12 12 11 11 11 11 11 11
16 16 16 16 16 16 15 15 15 15 15 15 15 15 15 15 14 14 14 14 14 14 14 13 13 13 13 13 13 13 13 13 12 12 12 12 11 11 11 11 11 11 11
16 16 16 16 16 15 15 15 15 15 15 15 15 15 15 14 14 14 14 14 14 14 13 13 13 13 13 13 13 13 12 12 12 12 12 11 11 11 11 11 11 11 11
16 16 16 16 15 15 15 15 15 15 15 15 15 14 14 14 14 14 14 14 13 13 13 13 13 13 13 13 13 12 12 12 12 12 11 11 11 11 11 10 10 10 10
16 16 16 15 15 15 15 15 15 15 15 15 14 14 14 14 14 14 14 14 13 13 13 13 13 13 12 12 12 12 12 12 11 11 11 11 11 10 10 10 10 10 10
16 16 15 15 15 15 15 15 15 14 14 14 14 14 14 14 14 14 13 13 13 13 13 13 13 12 12 12 12 12 12 11 11 11 11 11 10 10 10 10 10 10 10
16 16 15 15 15 15 15 15 14 14 14 14 14 14 14 14 13 13 13 13 13 13 12 12 12 12 12 12 11 11 11 11 11 11 10 10 10 10 10 10 10 9 9
16 15 15 15 15 15 15 15 14 14 14 14 14 13 13 13 13 13 13 13 13 12 12 12 12 12 12 11 11 11 11 11 10 10 10 10 10 9 9 9 9 9 9
15 15 15 15 15 15 14 14 14 14 14 14 13 13 13 13 13 13 13 12 12 12 12 12 12 11 11 11 11 10 10 10 10 10 10 9 9 9 9 9 9 8 8
15 15 15 15 14 14 14 14 14 14 13 13 13 13 13 13 12 12 12 12 12 12 11 11 11 11 11 10 10 10 10 9 9 9 9 9 9 9 9 8 8 8 8
15 15 15 14 14 14 14 14 13 13 13 13 13 13 12 12 12 12 12 12 11 11 11 11 10 10 10 10 10 10 9 9 9 9 9 8 8 8 8 8 8 8 7
15 15 14 14 14 14 13 13 13 13 13 13 12 12 12 12 12 12 11 11 11 11 11 10 10 10 10 10 9 9 9 8 8 8 8 8 8 8 7 7 7 7 7
14 14 14 14 14 13 13 13 13 13 13 12 12 12 12 12 12 11 11 11 11 10 10 10 10 10 10 9 9 9 8 8 8 8 8 7 7 7 7 7 6 6 6
14 14 14 13 13 13 13 12 12 12 12 12 12 12 11 11 11 11 11 10 10 10 10 10 10 9 9 9 9 8 8 8 7 7 7 7 7 6 6 6 6 6 6
14 14 13 13 13 12 12 12 12 12 12 11 11 11 11 11 11 11 10 10 10 10 10 9 9 9 8 8 8 8 8 7 7 7 6 6 6 6 6 5 5 5 5
13 13 13 13 12 12 12 12 12 12 12 11 11 11 11 10 10 10 10 10 9 9 9 9 9 8 8 8 7 7 7 7 7 6 6 6 5 5 5 5 5 5 4
13 13 12 12 12 12 12 12 11 11 11 11 11 10 10 10 10 9 9 9 9 9 9 8 8 8 8 7 7 7 7 6 6 6 6 5 5 5 5 5 4 4 4
12 12 12 12 11 11 11 11 11 11 11 10 10 10 10 10 9 9 9 9 8 8 8 8 8 7 7 7 7 6 6 6 6 5 5 5 5 4 4 4 4 4 3
12 12 11 11 11 11 11 11 10 10 10 10 10 10 9 9 9 9 9 8 8 8 8 7 7 7 7 6 6 6 6 5 5 5 5 4 4 4 4 4 3 3 3
11 11 11 11 11 11 10 10 10 10 10 10 9 9 9 9 8 8 8 8 8 7 7 7 7 6 6 6 5 5 5 5 5 5 4 4 4 4 3 3 3 3 3
11 11 11 11 10 10 10 10 10 10 9 9 9 9 8 8 8 8 8 8 7 7 7 6 6 6 6 5 5 5 4 4 4 4 4 4 3 3 3 3 3 3 2
11 11 10 10 10 10 10 9 9 9 9 9 9 8 8 8 8 7 7 7 7 6 6 6 5 5 5 5 4 4 4 4 3 3 3 3 3 3 3 3 2 2 2
10 10 10 10 10 9 9 9 9 9 9 8 8 8 8 7 7 7 7 7 6 6 6 5 5 5 4 4 4 4 3 3 3 3 3 3 2 2 2 2 2 2 2
10 10 9 9 9 9 9 9 8 8 8 8 8 7 7 7 7 6 6 6 6 5 5 5 5 4 4 4 4 3 3 3 3 3 2 2 2 2 2 2 2 1 1
Wind_Speed
7 7 7 6 5 5 5 5 5 4 4 4 4 4 4 4 4 5 4 4 4 4 3 4 4 3 3 3 3 3 3 3 3 1 1 2 2 3 3 4 4 5 6
7 7 7 6 6 6 5 5 5 5 4 5 4 4 4 4 4 4 4 3 4 3 2 3 3 3 4 3 3 3 2 2 3 2 1 2 2 1 2 2 3 4 4
7 7 7 6 6 6 5 5 5 5 5 5 4 4 4 4 4 3 4 3 3 2 2 3 2 4 3 3 3 3 2 3 3 3 0 1 2 2 3 3 4 4 4
8 8 7 7 6 6 6 5 5 5 5 5 4 4 4 4 4 4 4 4 3 2 2 2 2 3 3 3 3 3 3 4 3 3 2 1 1 2 2 2 3 3 3
8 8 7 6 6 6 6 5 5 5 5 5 5 4 4 4 4 5 5 5 4 3 2 2 2 3 3 3 3 3 3 3 3 2 1 1 1 2 1 1 1 3 3
9 8 7 7 6 6 6 6 6 5 5 5 5 5 4 3 6 8 6 4 4 4 2 1 2 3 4 5 5 5 5 4 3 2 1 1 1 1 1 0 1 2 3
8 8 7 7 7 7 7 7 6 5 5 5 4 4 4 3 6 7 8 5 4 3 3 2 2 2 3 3 4 5 4 4 4 4 3 2 2 2 1 0 1 0 2
8 8 8 8 8 7 7 7 6 5 5 5 4 4 3 2 5 7 8 5 4 3 2 2 2 1 2 3 3 3 3 2 1 2 3 2 2 2 2 2 1 0 2
8 8 8 8 8 8 7 7 5 5 5 4 4 4 4 2 5 7 7 4 4 2 2 2 2 2 1 4 4 3 3 3 3 3 2 2 2 2 2 2 2 2 3
9 8 8 8 8 8 7 6 5 5 5 5 4 4 4 3 4 7 7 4 4 2 2 2 2 2 2 4 4 3 2 1 2 3 4 4 4 3 3 2 2 0 1
7 7 7 7 8 7 6 5 6 6 6 5 4 3 2 3 3 5 7 4 4 3 1 1 1 2 3 4 4 3 2 1 1 2 2 3 3 3 3 2 0 1 1
7 7 7 6 7 6 6 5 6 7 6 5 4 2 1 1 2 3 5 5 5 4 2 1 1 3 3 3 2 3 4 4 3 3 2 2 2 2 3 3 3 2 2
7 7 7 6 5 6 7 6 5 5 5 5 4 3 2 1 1 3 4 5 6 4 2 3 3 4 4 3 4 4 4 3 2 2 1 1 1 2 2 3 5 5 5
8 7 7 7 6 5 5 5 5 5 5 5 5 4 3 2 1 1 1 2 4 3 3 3 4 5 4 3 3 3 2 2 2 1 1 1 1 2 2 2 3 3 4
8 7 6 6 6 5 4 3 5 4 6 7 5 5 5 4 4 5 5 3 3 3 4 3 3 3 2 2 2 2 1 1 1 0 0 1 2 2 2 2 2 2 2
8 7 6 5 5 5 5 3 2 2 4 6 6 6 4 5 6 7 7 6 6 8 6 3 2 1 1 1 0 1 1 1 1 0 0 0 1 2 2 3 2 2 3
8 7 6 6 5 5 5 5 3 2 3 3 4 5 5 5 6 7 7 7 7 9 4 3 2 2 2 1 1 1 1 1 1 0 0 1 1 2 2 3 3 3 4
7 7 6 5 5 5 6 5 5 4 2 0 0 3 4 5 5 6 7 7 3 3 3 3 3 3 2 2 2 2 1 1 1 1 1 1 2 2 3 3 3 4 4
7 6 5 5 4 5 5 4 4 4 4 2 1 1 3 4 4 4 7 5 4 4 4 3 3 3 3 3 3 2 2 2 2 2 2 2 2 2 3 4 4 6 5
6 8 7 6 5 4 4 4 4 4 4 3 3 2 2 3 2 2 3 3 4 4 4 4 4 3 3 3 3 2 2 2 3 3 3 3 3 3 4 5 5 5 5
5 6 8 6 5 5 5 5 4 4 4 3 3 3 6 4 4 4 4 4 4 4 4 3 3 3 3 3 3 3 3 3 3 4 4 4 4 4 4 5 5 5 6
5 5 5 5 4 4 4 4 4 4 4 4 2 2 6 4 3 3 4 4 4 3 3 3 3 3 3 3 3 3 4 4 4 4 4 4 4 5 5 5 5 5 6
5 5 4 4 4 5 4 4 4 4 3 3 3 3 3 3 3 3 3 3 2 2 3 3 3 3 3 4 4 4 4 5 5 5 4 5 5 5 5 5 6 7 6
5 5 5 4 4 4 4 4 3 3 3 3 3 3 3 3 3 3 3 2 2 2 2 3 3 4 4 3 3 4 6 6 6 6 6 5 5 5 5 5 6 7 7
5 5 4 4 4 4 3 3 3 3 3 3 3 3 3 3 2 3 2 2 2 2 2 2 2 3 4 4 4 5 6 7 7 7 6 5 5 6 6 6 6 6 6
5 4 4 4 3 3 3 3 2 3 3 3 3 3 3 3 2 2 2 2 2 2 2 2 2 3 3 4 5 6 6 6 6 7 6 5 5 5 6 5 7 6 6
Wind_Direction
164 162 157 162 158 148 149 157 153 149 139 133 132 127 118 109 105 104 100 97 93 77 67 77 65 60 62 48 62 76 86 111 120 317 347 356 29 41 38 44 49 45 34
162 157 157 155 149 145 150 155 149 148 142 138 133 131 130 122 115 117 117 102 100 92 79 78 65 72 64 54 68 70 78 100 126 122 351 359 14 13 38 41 35 33 29
154 152 151 152 153 155 155 149 147 143 133 127 133 138 135 127 122 123 125 111 107 115 114 108 94 92 74 65 73 73 72 78 91 117 56 360 9 16 31 22 28 20 11
157 156 159 164 164 161 154 147 149 141 133 135 143 146 138 130 126 125 122 111 102 100 106 113 115 122 128 110 90 88 92 82 80 93 76 18 5 350 36 19 4 357 356
163 165 172 170 161 153 150 146 142 139 139 139 132 127 130 130 136 132 125 121 117 103 85 88 101 116 122 120 114 120 111 100 91 91 82 36 359 1 342 321 357 336 336
166 173 170 161 157 156 154 147 137 134 132 124 124 130 128 135 138 137 135 128 126 127 120 89 74 70 84 87 93 109 128 130 133 126 131 151 265 280 298 353 23 6 328
165 166 167 163 161 162 157 145 143 144 136 127 128 129 128 137 134 134 134 129 127 133 135 131 108 82 85 87 76 72 71 101 142 152 159 203 216 232 197 26 347 290 272
164 166 170 168 165 160 155 154 155 151 147 144 147 142 131 135 134 130 128 117 113 112 126 143 133 110 122 124 102 68 42 26 71 130 170 205 214 206 188 186 204 300 312
168 173 177 170 164 160 163 165 162 153 152 150 147 140 131 125 127 129 121 112 106 95 94 106 122 127 137 127 111 91 44 4 35 69 83 63 51 63 93 75 43 39 340
178 176 171 166 163 165 168 165 158 154 152 144 138 141 141 142 130 130 129 123 118 105 65 49 73 103 124 126 126 122 97 334 19 32 35 31 35 35 40 106 162 128 316
172 166 163 164 164 163 156 153 149 145 140 140 136 131 136 148 138 134 137 142 151 141 119 32 348 73 97 115 124 138 161 145 90 66 40 19 18 18 13 5 204 186 225
156 155 156 155 159 157 145 146 145 142 140 143 137 125 106 139 140 145 144 147 146 144 160 179 146 103 96 94 97 89 89 89 79 65 51 22 2 342 334 350 346 317 265
147 151 148 142 140 141 144 144 142 144 148 153 152 157 164 149 148 136 136 141 145 141 150 142 118 96 88 72 67 76 83 85 86 73 48 325 302 305 348 5 3 3 360
150 150 147 141 137 135 138 145 151 159 161 162 164 168 166 157 167 159 144 134 132 126 116 108 97 90 81 62 51 54 66 100 120 147 249 293 332 356 353 350 348 347 349
149 151 150 147 145 141 139 152 164 181 181 176 183 178 172 187 209 179 159 156 155 144 119 83 66 59 50 34 28 26 36 50 62 44 63 360 352 354 339 340 348 347 336
150 153 152 148 145 144 140 113 77 134 164 174 177 174 185 187 169 159 155 147 141 134 119 113 116 119 130 134 78 1 0 351 336 24 34 358 340 334 332 336 342 335 317
155 155 154 154 156 159 156 151 139 51 67 133 162 169 168 162 159 159 158 147 138 134 125 148 163 181 194 198 199 206 247 265 269 262 292 305 320 323 326 322 322 323 313
148 151 154 161 166 168 166 164 161 158 153 85 130 157 158 159 162 162 152 132 130 154 171 182 193 196 198 203 212 222 237 245 245 258 271 280 288 299 308 304 297 299 301
146 151 151 149 155 160 158 155 158 161 162 160 119 102 142 138 136 146 142 146 170 191 202 207 207 203 206 210 215 218 221 234 248 249 259 268 274 280 286 286 286 293 297
146 151 148 148 151 149 150 155 160 162 165 168 176 181 147 119 133 162 175 186 191 203 208 214 218 213 210 211 213 215 227 239 247 248 258 264 267 268 274 280 283 287 285
142 148 147 145 153 159 163 168 168 167 171 181 194 183 165 167 182 189 194 203 210 215 218 219 221 220 218 217 214 220 227 245 247 251 257 262 265 270 273 275 279 280 285
142 148 155 157 160 163 165 165 163 167 174 181 190 184 175 174 187 194 206 215 217 216 207 201 217 220 217 213 220 228 239 250 256 255 260 265 269 271 275 277 282 285 288
140 144 147 150 154 156 153 153 158 168 177 183 178 174 176 190 199 203 211 215 208 200 193 189 207 231 239 237 238 235 237 249 252 253 258 267 272 276 276 276 279 287 288
138 140 142 145 145 151 157 161 165 170 173 174 176 181 186 192 199 205 210 206 193 197 197 201 213 230 233 247 259 257 257 265 269 269 267 264 275 279 279 281 281 282 281
132 135 139 143 147 153 157 160 165 169 171 175 179 182 185 186 196 203 208 195 189 206 219 220 232 238 236 242 253 265 270 271 275 283 285 279 270 276 281 282 285 287 285
123 127 132 135 140 146 150 154 161 167 176 181 182 183 185 189 196 203 205 204 215 227 244 258 262 253 245 255 261 269 275 278 284 292 298 292 273 278 283 282 285 285 286
Height
1551 1553 1555 1557 1558 1560 1561 1562 1563 1564 1566 1566 1567 1568 1568 1569 1569 1569 1570 1570 1569 1569 1569 1569 1568 1568 1568 1568 1567 1567 1567 1567 1566 1566 1565 1565 1564 1562 1561 1560 1558 1556 1554
1549 1551 1553 1555 1557 1559 1560 1562 1563 1564 1565 1566 1567 1568 1569 1569 1569 1570 1570 1570 1570 1569 1569 1569 1569 1569 1568 1568 1567 1567 1567 1566 1566 1565 1565 1564 1563 1562 1561 1560 1558 1556 1554
1548 1550 1552 1554 1556 1558 1559 1561 1562 1563 1565 1566 1567 1568 1569 1569 1569 1570 1570 1569 1569 1569 1569 1569 1569 1569 1568 1568 1568 1567 1567 1566 1565 1565 1564 1563 1562 1562 1560 1559 1558 1556 1554
1546 1549 1551 1553 1555 1557 1558 1560 1561 1563 1564 1565 1566 1567 1568 1569 1569 1569 1569 1569 1569 1569 1569 1569 1569 1569 1568 1568 1567 1567 1566 1566 1565 1564 1563 1562 1562 1561 1560 1558 1557 1555 1553
1544 1547 1549 1551 1554 1555 1557 1558 1560 1562 1563 1564 1566 1567 1567 1568 1568 1569 1569 1569 1569 1569 1569 1569 1569 1568 1568 1567 1567 1566 1566 1565 1564 1563 1562 1561 1561 1560 1559 1557 1556 1554 1553
1542 1545 1548 1550 1552 1554 1556 1557 1559 1561 1562 1563 1565 1566 1567 1567 1568 1568 1568 1568 1568 1568 1568 1568 1568 1568 1567 1567 1566 1565 1565 1564 1563 1562 1561 1560 1559 1559 1557 1556 1555 1553 1551
1540 1543 1546 1548 1550 1552 1554 1556 1558 1559 1561 1562 1564 1565 1566 1566 1567 1567 1567 1567 1567 1567 1568 1568 1567 1567 1566 1566 1565 1564 1564 1563 1563 1562 1560 1559 1558 1557 1556 1555 1554 1552 1551
1538 1541 1544 1546 1548 1550 1552 1554 1556 1558 1559 1561 1562 1564 1564 1565 1566 1566 1566 1566 1566 1566 1566 1566 1566 1566 1565 1565 1564 1563 1563 1562 1561 1560 1559 1558 1557 1556 1555 1554 1552 1550 1549
1536 1539 1541 1544 1546 1548 1550 1552 1554 1556 1558 1559 1560 1562 1563 1564 1564 1565 1565 1565 1565 1565 1565 1565 1565 1564 1564 1564 1563 1562 1561 1560 1560 1559 1558 1557 1555 1554 1553 1552 1550 1548 1546
1533 1536 1539 1542 1544 1546 1548 1550 1552 1554 1556 1557 1559 1560 1561 1562 1563 1563 1563 1563 1563 1563 1563 1563 1563 1563 1563 1562 1561 1560 1559 1559 1558 1557 1556 1555 1554 1552 1551 1550 1548 1546 1544
1532 1535 1537 1540 1542 1545 1547 1549 1551 1553 1554 1555 1557 1558 1559 1560 1561 1561 1561 1562 1562 1562 1562 1561 1561 1561 1561 1560 1560 1559 1558 1557 1556 1555 1554 1553 1552 1550 1549 1548 1547 1545 1543
1529 1532 1535 1537 1540 1542 1545 1547 1549 1551 1552 1553 1554 1556 1557 1558 1559 1559 1559 1559 1560 1560 1560 1560 1559 1559 1559 1558 1558 1557 1556 1555 1554 1553 1552 1551 1550 1548 1547 1546 1545 1543 1541
1527 1530 1532 1535 1537 1540 1542 1544 1546 1548 1550 1551 1552 1553 1554 1555 1556 1557 1557 1557 1557 1558 1558 1558 1557 1557 1556 1556 1556 1555 1554 1553 1552 1551 1550 1549 1548 1547 1545 1543 1542 1540 1538
1525 1528 1530 1533 1535 1537 1540 1542 1544 1546 1547 1549 1550 1551 1552 1553 1553 1554 1554 1555 1555 1555 1555 1555 1555 1555 1554 1554 1553 1552 1552 1551 1550 1549 1548 1547 1546 1544 1542 1540 1538 1536 1534
1522 1525 1528 1531 1533 1535 1537 1540 1542 1544 1545 1547 1547 1549 1549 1550 1551 1552 1552 1552 1553 1553 1553 1553 1553 1552 1552 1551 1551 1550 1549 1549 1548 1546 1545 1544 1542 1541 1539 1537 1535 1533 1531
1520 1523 1526 1528 1531 1533 1535 1537 1540 1542 1543 1544 1546 1547 1547 1548 1549 1549 1550 1550 1551 1551 1551 1550 1550 1550 1549 1549 1548 1548 1547 1546 1545 1544 1542 1541 1539 1538 1536 1534 1532 1530 1528
1518 1520 1523 1526 1528 1531 1533 1535 1536 1539 1541 1542 1543 1544 1545 1546 1546 1547 1547 1548 1548 1548 1548 1547 1547 1547 1547 1547 1546 1545 1545 1544 1543 1541 1540 1538 1537 1535 1533 1531 1529 1526 1524
1516 1519 1521 1524 1526 1528 1530 1532 1534 1536 1537 1539 1540 1542 1542 1543 1544 1544 1545 1545 1545 1544 1544 1544 1544 1545 1544 1544 1543 1543 1542 1541 1539 1538 1536 1535 1533 1532 1530 1527 1525 1523 1520
1515 1517 1519 1522 1524 1526 1529 1530 1532 1534 1535 1536 1537 1539 1540 1540 1541 1541 1541 1541 1541 1541 1541 1542 1542 1541 1541 1541 1540 1539 1538 1537 1536 1534 1533 1531 1530 1528 1526 1524 1521 1519 1517
1513 1515 1517 1520 1522 1524 1526 1528 1530 1531 1532 1533 1535 1536 1537 1537 1537 1538 1538 1538 1538 1538 1538 1538 1538 1538 1538 1537 1536 1536 1534 1533 1532 1530 1529 1527 1526 1524 1522 1519 1517 1514 1512
1512 1514 1516 1518 1520 1522 1524 1525 1527 1528 1529 1531 1532 1533 1534 1534 1534 1535 1535 1535 1535 1535 1535 1534 1534 1534 1534 1533 1532 1531 1530 1529 1528 1526 1524 1523 1521 1519 1517 1515 1512 1510 1507
1510 1512 1514 1516 1518 1520 1521 1523 1524 1526 1527 1528 1529 1530 1530 1531 1531 1531 1531 1531 1531 1531 1531 1531 1530 1530 1529 1529 1528 1527 1526 1524 1523 1521 1520 1518 1516 1514 1512 1510 1507 1505 1503
1509 1511 1512 1514 1516 1517 1519 1521 1522 1523 1524 1525 1526 1526 1527 1527 1527 1527 1527 1527 1527 1527 1527 1526 1526 1525 1524 1524 1523 1522 1521 1519 1518 1517 1515 1513 1511 1509 1507 1504 1502 1500 1497
1507 1509 1510 1512 1514 1515 1516 1518 1519 1520 1521 1522 1522 1523 1523 1523 1523 1524 1523 1523 1523 1523 1522 1521 1521 1520 1519 1519 1518 1516 1515 1514 1513 1511 1509 1507 1505 1503 1501 1499 1497 1494 1492
1506 1507 1509 1510 1512 1513 1514 1515 1516 1517 1518 1518 1519 1519 1519 1519 1519 1519 1519 1519 1518 1518 1517 1517 1516 1515 1514 1513 1512 1511 1510 1509 1507 1506 1504 1502 1500 1498 1496 1493 1491 1489 1487
1504 1506 1507 1508 1510 1511 1512 1512 1513 1514 1515 1515 1515 1516 1516 1515 1515 1515 1515 1514 1514 1513 1513 1512 1511 1510 1509 1508 1507 1506 1505 1503 1502 1500 1499 1497 1495 1492 1490 1488 1486 1484 1481